#timestamp,LO_Frequency,Hit 
1501743615.6,286047005.8,N
1501743635.4,286047005.8,N
1501743655.3,286047002.9,N
1501743675.1,286047005.7,N
1501743695.8,286047003.7,N
1501743715.7,286047003.8,N
1501743735.5,286047001.4,N
1501743755.3,286047001.7,N
1501743775.2,286047004.2,N
1501743795.9,286047001.4,N
1501743815.7,286047002.3,N
1501743835.6,286047002.1,N
1501743855.4,286047002.8,N
1501743875.2,286047002.7,N
1501743895.0,286047000.9,N
1501743896.0,286047000.9,N
1501743915.8,286047000.7,N
1501743935.6,286046999.2,N
1501743955.4,286046998.9,N
1501743975.3,286046996.5,N
1501743995.1,286046997.8,N
1501744015.8,286046997.4,N
1501744035.7,286046997.3,N
1501744055.5,286046997.1,N
1501744075.3,286046997.4,N
1501744095.2,286046997.3,N
1501744115.9,286046997.2,N
1501744135.7,286046995.5,N
1501744155.6,286046998.0,N
1501744175.4,286046998.0,N
1501744195.2,286046994.9,N
1501744215.0,286046995.5,N
1501744215.9,286046995.5,N
1501744235.8,286046995.3,N
1501744255.6,286046995.3,N
1501744275.4,286046997.9,N
1501744295.3,286046994.9,N
1501744315.1,286046995.7,N
1501744335.8,286046995.3,N
1501744355.7,286046996.0,N
1501744375.5,286046994.1,N
1501744395.3,286046996.0,N
1501744415.2,286046995.8,N
1501744435.9,286046993.3,N
1501744455.7,286046996.1,N
1501744475.5,286046995.7,N
1501744495.4,286046994.0,N
1501744515.2,286046995.8,N
1501744535.0,286046995.4,N
1501744535.9,286046995.4,N
1501744555.8,286046995.1,N
1501744575.6,286046997.6,N
1501744595.4,286046996.0,N
1501744615.3,286046993.4,N
1501744635.1,286046993.4,N
1501744636.0,286046993.4,N
1501744655.8,286046994.4,N
1501744675.7,286046992.2,N
1501744695.5,286046994.4,N
1501744715.3,286046994.5,N
1501744735.2,286046994.1,N
1501744755.9,286046992.2,N
1501744775.7,286046991.7,N
1501744795.5,286046994.7,N
1501744815.4,286046993.9,N
1501744835.2,286046991.9,N
1501744855.0,286046994.5,N
1501744855.9,286046994.5,N
1501744875.8,286046994.4,N
1501744895.6,286046990.6,N
1501744915.4,286046992.8,N
1501744935.3,286046992.6,N
1501744955.1,286046992.6,N
1501744956.0,286046992.6,N
1501744975.8,286046990.6,N
1501744995.7,286046991.3,N
1501745015.5,286046991.0,N
1501745035.3,286046988.6,N
1501745055.1,286046991.4,N
1501745075.9,286046991.4,N
1501745095.7,286046991.0,N
1501745115.5,286046988.6,N
1501745135.4,286046991.5,N
1501745155.2,286046988.8,N
1501745175.0,286046988.7,N
1501745175.9,286046988.7,N
1501745195.8,286046991.0,N
1501745215.6,286046989.1,N
1501745235.4,286046989.3,N
1501745255.3,286046989.5,N
1501745275.1,286046989.7,N
1501745276.0,286046989.7,N
1501745295.8,286046988.9,N
1501745315.7,286046987.0,N
1501745335.5,286046989.8,N
1501745355.3,286046989.0,N
1501745375.1,286046988.7,N
1501745395.9,286046989.0,N
1501745415.7,286046988.7,N
1501745435.5,286046990.9,N
1501745455.4,286046989.4,N
1501745475.2,286046989.6,N
1501745495.0,286046988.0,N
1501745495.9,286046988.0,N
1501745515.8,286046987.5,N
1501745535.6,286046985.5,N
1501745555.4,286046987.2,N
1501745575.3,286046989.4,N
1501745595.1,286046987.5,N
1501745596.0,286046987.5,N
1501745615.8,286046987.6,N
1501745635.7,286046985.6,N
1501745655.5,286046985.4,N
1501745675.3,286046986.5,N
1501745695.1,286046987.9,N
1501745715.9,286046985.5,N
1501745735.7,286046985.4,N
1501745755.5,286046983.8,N
1501745775.4,286046984.0,N
1501745795.2,286046986.3,N
1501745815.0,286046982.6,N
1501745815.9,286046982.6,N
1501745835.8,286046983.4,N
1501745855.6,286046984.8,N
1501745875.4,286046984.8,N
1501745895.3,286046984.8,N
1501745915.1,286046982.5,N
1501745916.0,286046982.5,N
1501745935.8,286046982.4,N
1501745955.7,286046982.3,N
1501745975.5,286046982.6,N
1501745995.3,286046983.3,N
1501746015.1,286046981.1,N
1501746035.9,286046982.6,N
1501746055.7,286046985.1,N
1501746075.5,286046984.8,N
1501746095.4,286046984.2,N
1501746115.2,286046986.7,N
1501746135.0,286046984.0,N
1501746135.9,286046984.0,N
1501746155.8,286046984.0,N
1501746175.6,286046984.9,N
1501746195.4,286046982.3,N
1501746215.3,286046980.8,N
1501746235.1,286046983.0,N
1501746236.0,286046983.0,N
1501746255.4,286046981.0,N
1501746275.3,286046982.9,N
1501746295.1,286046982.0,N
1501746315.8,286046980.6,N
1501746335.7,286046981.7,N
1501746355.5,286046979.8,N
1501746375.3,286046980.4,N
1501746395.2,286046977.4,N
1501746415.9,286046979.9,N
1501746435.7,286046979.0,N
1501746455.6,286046979.3,N
1501746475.4,286046979.3,N
1501746495.2,286046978.1,N
1501746515.0,286046976.4,N
1501746515.9,286046976.4,N
1501746535.8,286046976.5,N
1501746555.6,286046975.4,N
1501746575.4,286046972.9,N
1501746595.3,286046976.7,N
1501746615.1,286046978.3,N
1501746635.8,286046974.1,N
1501746655.7,286046974.9,N
1501746675.5,286046978.4,N
1501746695.3,286046976.5,N
1501746715.2,286046977.2,N
1501746735.9,286046977.0,N
1501746755.7,286046978.5,N
1501746775.6,286046977.5,N
1501746795.4,286046979.6,N
1501746815.2,286046981.8,N
1501746835.0,286046979.6,N
1501746835.9,286046979.6,N
1501746855.8,286046977.4,N
1501746875.6,286046978.1,N
1501746895.4,286046974.5,N
1501746915.3,286046976.5,N
1501746935.1,286046977.2,N
1501746955.8,286046976.7,N
1501746975.7,286046974.3,N
1501746995.5,286046975.1,N
1501747015.3,286046973.5,N
1501747035.2,286046973.0,N
1501747055.9,286046971.1,N
1501747075.7,286046971.6,N
1501747095.5,286046971.3,N
1501747115.4,286046973.7,N
1501747135.2,286046971.0,N
1501747155.0,286046971.1,N
1501747155.9,286046971.1,N
1501747175.8,286046972.3,N
1501747195.6,286046971.0,N
